Weather History for Telfer, WE

Change the Weather History Date:

Tuesday, November 6, 2012

  Actual Average Record
Temperature  
Mean Temperature 84 °F -  
Max Temperature 99 °F - - ()
Min Temperature 68 °F - - ()
Cooling Degree Days 18    
Growing Degree Days 34 (Base 50)    
Moisture  
Dew Point 29 °F    
Average Humidity 11    
Maximum Humidity 24    
Minimum Humidity 4    
Precipitation  
Precipitation 0.00 in - - ()
Sea Level Pressure  
Sea Level Pressure 29.80 in    
Wind  
Wind Speed 10 mph ()    
Max Wind Speed 23 mph    
Max Gust Speed -    
T = Trace of Precipitation, MM = Missing Value Source: Averaged Metar Reports

Daily Weather History Graph

Daily Weather History Graph

Search for Another Location

Airport:

Trip Planner

Search our weather history database for the weather conditions in past years. The results will help you decide how hot, cold, wet, or windy it might be!

Date:

Astronomy

Nov. 06, 2012 Rise Set
Actual Time 5:04 AM WST 6:04 PM WST
Civil Twilight 4:41 AM WST 6:28 PM WST
Nautical Twilight 4:13 AM WST 6:56 PM WST
Astronomical Twilight 3:45 AM WST 7:24 PM WST
Moon 11:53 PM WST (11/6) 10:42 AM WST (11/6)
Length of Visible Light 13h 47m
Length of Day
13h 00m
Waning Gibbous, 58% of the Moon is Illuminated
Nov 6
Waning Gibbous
Nov 7
Last Quarter
Nov 14
New
Nov 20
First Quarter
Nov 28
Full

Hourly Weather History & Observations

Time (WST) Temp. Dew Point Humidity Pressure Visibility Wind Dir Wind Speed Gust Speed Precip Events Conditions
12:00 AM 80 °F 38 °F 13% 29.74 in - SSE 9.2 mph - -  
12:00 AM 78.8 °F 39.2 °F 24% 29.80 in - SSE 9.2 mph - N/A   Unknown
1:00 AM 78.8 °F 30.2 °F 17% 29.80 in - South 15.0 mph - N/A   Unknown
2:00 AM 76 °F 30 °F 10% 29.74 in - South 11.5 mph - -  
2:00 AM 77.0 °F 30.2 °F 18% 29.80 in - South 11.5 mph - N/A   Unknown
3:00 AM 72 °F 28 °F 11% 29.75 in - SE 8.1 mph - -  
3:00 AM 71.6 °F 28.4 °F 20% 29.80 in - SE 8.1 mph - N/A   Unknown
4:00 AM 71.6 °F 28.4 °F 20% 29.83 in - SSE 11.5 mph - N/A   Unknown
5:00 AM 69 °F 27 °F 11% 29.79 in - SE 10.4 mph - -  
5:00 AM 68.0 °F 26.6 °F 21% 29.86 in - SE 10.4 mph - N/A   Unknown
6:00 AM 72 °F 27 °F 10% 29.81 in - SSE 13.8 mph - -  
6:00 AM 73.4 °F 26.6 °F 18% 29.86 in - SSE 13.8 mph - N/A   Unknown
7:00 AM 78.8 °F 30.2 °F 17% 29.89 in - SE 23.0 mph - N/A   Unknown
8:00 AM 83 °F 30 °F 7% 29.83 in - ESE 19.6 mph - -  
8:00 AM 82.4 °F 30.2 °F 15% 29.89 in - ESE 19.6 mph - N/A   Unknown
9:00 AM 86 °F 31 °F 7% 29.83 in - SE 19.6 mph - -  
9:00 AM 86.0 °F 30.2 °F 13% 29.89 in - SE 19.6 mph - N/A   Unknown
10:00 AM 89.6 °F 30.2 °F 12% 29.86 in - SSE 18.4 mph - N/A   Unknown
11:00 AM 93 °F 28 °F 4% 29.80 in - ESE 15.0 mph - -  
11:00 AM 93.2 °F 28.4 °F 10% 29.86 in - ESE 15.0 mph - N/A   Unknown
12:00 PM 94 °F 29 °F 4% 29.78 in - ESE 11.5 mph - -  
12:00 PM 93.2 °F 28.4 °F 10% 29.83 in - ESE 11.5 mph - N/A   Unknown
1:00 PM 95.0 °F 30.2 °F 10% 29.80 in - SSE 9.2 mph - N/A   Unknown
2:00 PM 96 °F 28 °F 4% 29.73 in - SSW 4.6 mph - -  
2:00 PM 96.8 °F 28.4 °F 9% 29.77 in - SSW 4.6 mph - N/A   Unknown
3:00 PM 97 °F 29 °F 4% 29.70 in - SE 6.9 mph - -  
3:00 PM 96.8 °F 28.4 °F 9% 29.77 in - SE 6.9 mph - N/A   Unknown
4:00 PM 98.6 °F 26.6 °F 8% 29.74 in - WSW 6.9 mph - N/A   Unknown
5:00 PM 97 °F 26 °F 4% 29.70 in - South 8.1 mph - -  
5:00 PM 96.8 °F 26.6 °F 8% 29.74 in - South 8.1 mph - N/A   Unknown
6:00 PM 94 °F 27 °F 4% 29.71 in - SW 6.9 mph - -  
6:00 PM 95.0 °F 26.6 °F 9% 29.77 in - SW 6.9 mph - N/A   Unknown
7:00 PM 91.4 °F 26.6 °F 10% 29.80 in - SSW 6.9 mph - N/A   Unknown
8:00 PM 89 °F 27 °F 5% 29.76 in - South 9.2 mph - -  
8:00 PM 87.8 °F 26.6 °F 11% 29.83 in - South 9.2 mph - N/A   Unknown
9:00 PM 87 °F 29 °F 6% 29.77 in - South 11.5 mph - -  
9:00 PM 87.8 °F 28.4 °F 12% 29.83 in - South 11.5 mph - N/A   Unknown
10:00 PM 84.2 °F 30.2 °F 14% 29.83 in - South 11.5 mph - N/A   Unknown
11:00 PM 81 °F 33 °F 9% 29.76 in - SSE 9.2 mph - -  
11:00 PM 80.6 °F 33.8 °F 18% 29.80 in - SSE 9.2 mph - N/A   Unknown